Regional Weather Roundup
Issued by NWS

Home | Current Version | Previous Version | Text Only | Print | Product List | Glossary Off
Versions: 1 2 3 4 5 6 7 8 9 10 11 12 13 14 15 16 17 18 19 20 21 22 23 24 25 26 27

000
ASUS45 KTFX 201810
RWRMT
MONTANA REGIONAL WEATHER ROUNDUP
NATIONAL WEATHER SERVICE GREAT FALLS MT
1100 AM MST MON FEB 20 2017

NOTE: "FAIR" INDICATES FEW OR NO CLOUDS BELOW 12000 FEET WITH NO
SIGNIFICANT WEATHER AND/OR OBSTRUCTIONS TO VISIBILITY.

MTZ001>007-043-201900-
WEST OF THE DIVIDE

CITY           SKY/WX    TMP DP  RH WIND       PRES   REMARKS
KALISPELL      LGT SNOW  34  31  88 CALM      29.64R VSB 3/4
MISSOULA       CLOUDY    35  32  88 S6        29.65S WCI  30
BUTTE          CLOUDY    39  25  57 S17G23    29.69S WCI  30
MULLAN PASS    SNOW      25  25 100 VRB7      29.51F VSB 1/4 WCI  17
ANACONDA         N/A     41  27  56 S15       29.69R
DEER LODGE       N/A     45  27  49 S12G25    29.64F
EUREKA           N/A     37  30  75 SE12      29.62F WCI  30
HAMILTON         N/A     34  34 100 CALM      29.64F
LIBBY            N/A     30  30 100 CALM      29.62S VSB 3/4
PLAINS           N/A     31  26  81 MISG      29.66F
RONAN            N/A     34  31  89 N1        29.67F
$$

MTZ008-052>055-201900-
SOUTHWEST MONTANA

CITY           SKY/WX    TMP DP  RH WIND       PRES   REMARKS
BOZEMAN        MOSUNNY   40  28  62 NE7       29.70F
DILLON         CLOUDY    42  27  55 S13G21    29.71F
W YELLOWSTONE  LGT SNOW  32  30  93 SW12G21   29.87R WCI  23
ENNIS          PTSUNNY   43  27  52 S31G43    29.81R
THREE FORKS      N/A     48  48 100 S23       29.70F
TWIN BRIDGES     N/A     39  24  55 S7        29.75F
$$

MTZ009-010-012-014-046-048-049-054-201900-
EAST SLOPES AND CENTRAL MONTANA

CITY           SKY/WX    TMP DP  RH WIND       PRES   REMARKS
CUT BANK       CLOUDY    36  23  59 SE8       29.59F WCI  30
GREAT FALLS    SUNNY     48  23  37 S15       29.61F
MALMSTROM AFB  MOSUNNY   48  24  39 S10       29.62F
HELENA         SUNNY     37  28  70 NE3       29.64F
AUGUSTA          N/A     40  26  57 S17       29.58F
BOWMANS CRNR     N/A     41  24  51 S23       29.57F
CHOTEAU          N/A     45  27  49 S14       29.61F
CONRAD           N/A     43  32  65 SE14      29.66F
POWER            N/A     43  24  45 S15       29.61F
RAYNESFORD       N/A     48  25  41 S12       29.62F
ULM              N/A     49  24  37 MISG      29.61F
$$

MTZ011-013-016-021-045-047-050-051-201900-
NORTH CENTRAL MONTANA

CITY           SKY/WX    TMP DP  RH WIND       PRES   REMARKS
HAVRE          SUNNY     46  26  45 W10       29.66F
LEWISTOWN      CLOUDY    45  24  43 VRB5      29.67F
N BAR RANCH    PTSUNNY   48  18  29 SW16G23   29.72F
CHINOOK          N/A     46  28  49 NE3       29.67F
DENTON         CLOUDY    46  26  45 S10G18    29.63F
FORT BENTON      N/A     45  30  57 MISG      29.66F
GEYSER         PTSUNNY   45  24  43 E6        29.64F
GRASS RANGE    PTSUNNY   46  24  42 E8        29.66F
JUDITH GAP     PTSUNNY   43  22  43 S18       29.68F
ROY            PTSUNNY   47  22  37 MISG      29.68F
STANFORD         N/A     46  23  40 S20G28    29.64F
WINIFRED       PTSUNNY   47  23  39 SW10      29.67F
$$

MTZ017>020-022>027-061-062-201900-
NORTHEAST MONTANA

CITY           SKY/WX    TMP DP  RH WIND       PRES   REMARKS
GLASGOW        SUNNY     44  29  55 SW8       29.73S
JORDAN           N/A     50  25  37 W8        29.74F
SIDNEY         SUNNY     51  31  46 W20       29.73F
WOLF POINT     SUNNY     40  32  73 SW9       29.75S
PLENTYWOOD       N/A     43  36  75 CALM      29.70F
POPLAR           N/A     37  32  81 W6        29.75R
SCOBEY           N/A     45  28  51 W12       29.70S
$$

MTZ028>42-056>058-201900-
SOUTHCENTRAL AND SOUTHEAST MONTANA

CITY           SKY/WX    TMP DP  RH WIND       PRES   REMARKS
BAKER          SUNNY     49  30  48 W15       29.79S
BILLINGS       MOSUNNY   47  25  42 SW5       29.75F
LIVINGSTON     MOSUNNY   49  27  42 SW35G48   29.68F
MILES CITY     SUNNY     51  27  39 NW7       29.78F
BIG TIMBER     CLOUDY    45  21  39 SE10      29.75F
EKALAKA          N/A     48  26  42 W10       29.80R
FORSYTH          N/A     52  21  30 CALM      29.78F
HARLOWTON        N/A     42  22  45 SE9       29.71F
LAUREL           N/A     51  23  33 S12       29.76F
ROUNDUP          N/A     45  23  42 S5        29.68F
$$

REGIONAL REPORTS...DAKOTAS

CITY           SKY/WX    TMP DP  RH WIND       PRES   REMARKS
WILLISTON      SUNNY     41  32  70 SW16      29.72S
MINOT          MOSUNNY   40  35  83 W13       29.68S
DICKINSON      SUNNY     49  34  56 NW18      29.73R
BEACH            N/A    N/A N/A N/A MISG        N/A
CROSBY         PTSUNNY   41  37  87 SW7       29.70S
TIOGA            N/A     39  39 100 W8        29.71S
WATFORD CITY     N/A     41  36  81 W12       29.74R
BISMARCK       MOSUNNY   43  37  79 NW10      29.72S
GRAND FORKS    CLOUDY    37  33  85 W13       29.60R WCI  29
FARGO          CLOUDY    50  49  96 SW10      29.61R FOG
BUFFALO SD       N/A     54  22  28 NW23G30   29.73S
RAPID CITY     SUNNY     59  22  24 NW17G24   29.82F
$$

REGIONAL REPORTS...WYOMING/IDAHO/WASHINGTON

CITY           SKY/WX    TMP DP  RH WIND       PRES   REMARKS
GILLETTE       SUNNY     50  25  37 SW20      29.84F
SHERIDAN       SUNNY     50  22  33 SE20      29.81S
BUFFALO WY     SUNNY     51  20  29 S25G35    29.82F
CODY           SUNNY     47  21  35 VRB5      29.84R
YELLOWSTONE LA   N/A     29  28  96 VRB3      29.91R
IDAHO FALLS    CLOUDY    40  34  79 SW16      29.93R
SALMON         CLOUDY    37  30  75 S12       29.72R WCI  30
BOISE          CLOUDY    52  37  56 SE24G36   29.75R
SPOKANE        LGT SNOW  34  32  92 E6        29.53F FOG     WCI  29
$$

REGIONAL REPORTS...ALBERTA

CITY           SKY/WX    TMP DP  RH WIND       PRES   REMARKS
EDMONTON       PTSUNNY   30  25  80 CALM      29.60S
CALGARY        FOG       25  25 100 N5        29.54S VSB 1/2
LETHBRIDGE     PTSUNNY   41  25  52 S7        29.58S
MEDICINE HAT   PTSUNNY   45  25  45 SW16      29.60F
CARDSTON         N/A     43  23  45 S5          N/A
MILK RIVER       N/A     41  23  48 S14         N/A
ONEFOUR          N/A     41  23  48 SW9         N/A
$$

REGIONAL REPORTS...SASKATCHEWAN

CITY           SKY/WX    TMP DP  RH WIND       PRES   REMARKS
SWIFT CURRENT  SUNNY     39  30  70 W18G25    29.61F WCI  30
REGINA         MOSUNNY   37  34  87 W7        29.65S
SASKATOON      CLOUDY    36  32  87 W8        29.62R FOG     WCI  29
CYPRESS HILLS    N/A     34  21  60 S8          N/A  WCI  27
VAL MARIE        N/A     43  27  52 W9          N/A
ROCKGLEN         N/A     41  27  56 W21         N/A
ASSINIBOIA       N/A     34  28  80 NW8         N/A  WCI  27
$$




USA.gov is the U.S. government's official web portal to all federal, state and local government web resources and services.